Weather History for KBVU - November, 2011

Change the Weather History Date:

Sunday, November 6, 2011

  Actual Average (KLAS) Record (KLAS)
Temperature  
Mean Temperature 45 °F 61 °F  
Max Temperature 53 °F 71 °F 85 °F (1988)
Min Temperature 37 °F 50 °F 27 °F (1940)
Degree Days  
Heating Degree Days 20 5  
Month to date heating degree days 27  
Since 1 July heating degree days 66  
Cooling Degree Days 0 1  
Month to date cooling degree days 7  
Year to date cooling degree days 3563  
Moisture  
Dew Point 31 °F    
Average Humidity 58    
Maximum Humidity 81    
Minimum Humidity 41    
Precipitation  
Precipitation 0.00 in 0.01 in 0.96 in (1960)
Month to date precipitation 0.07  
Year to date precipitation 3.40  
Snow  
Snow 0.00 in 0.00 in 0.00 in ()
Month to date snowfall 0.0  
Since 1 July snowfall 0.0  
Since 1 September snowfall 0.0  
Snow Depth -    
Sea Level Pressure  
Sea Level Pressure 29.95 in    
Wind  
Wind Speed 4 mph (SSE)    
Max Wind Speed 15 mph    
Max Gust Speed 28 mph    
Visibility 10 miles    
Events      
T = Trace of Precipitation, MM = Missing Value Source: NWS Daily Summary

Daily Weather History Graph

Daily Weather History Graph

Search for Another Location

Airport or City:

Trip Planner

Search our weather history database for the weather conditions in past years. The results will help you decide how hot, cold, wet, or windy it might be!

Date:

Astronomy

Nov. 06, 2011 Rise Set
Actual Time 6:06 AM PST 4:39 PM PST
Civil Twilight 5:39 AM PST 5:05 PM PST
Nautical Twilight 5:09 AM PST 5:36 PM PST
Astronomical Twilight 4:39 AM PST 6:06 PM PST
Moon 2:19 PM PST (11/6) 2:23 AM PST (11/6)
Length of Visible Light 11h 25m
Length of Day
10h 32m
Waxing Gibbous, 86% of the Moon is Illuminated
Nov 6
Waxing Gibbous
Nov 10
Full
Nov 18
Last Quarter
Nov 24
New
Dec 2
First Quarter

Hourly Weather History & Observations

Time (PST) Temp. Windchill Dew Point Humidity Pressure Visibility Wind Dir Wind Speed Gust Speed Precip Events Conditions
12:15 AM 41.0 °F 39.0 °F 30.2 °F 65% 29.95 in 10.0 mi NNW 3.5 mph - N/A   Clear
12:35 AM 39.2 °F 37.0 °F 28.4 °F 65% 29.95 in 10.0 mi NW 3.5 mph - N/A   Clear
12:55 AM 39.2 °F 37.0 °F 28.4 °F 65% 29.95 in 10.0 mi NNW 3.5 mph - N/A   Clear
1:15 AM 39.2 °F 37.0 °F 28.4 °F 65% 29.95 in 10.0 mi NW 3.5 mph - N/A   Clear
1:35 AM 41.0 °F 39.0 °F 26.6 °F 57% 29.95 in 10.0 mi West 3.5 mph - N/A   Clear
1:55 AM 41.0 °F - 28.4 °F 61% 29.95 in 10.0 mi Calm Calm - N/A   Clear
1:15 AM 39.2 °F - 28.4 °F 65% 29.94 in 10.0 mi Calm Calm - N/A   Clear
1:35 AM 37.4 °F - 28.4 °F 70% 29.94 in 10.0 mi Calm Calm - N/A   Clear
1:55 AM 37.4 °F - 30.2 °F 75% 29.94 in 10.0 mi Calm Calm - N/A   Clear
2:15 AM 39.2 °F - 28.4 °F 65% 29.94 in 10.0 mi Calm Calm - N/A   Clear
2:35 AM 44.6 °F 43.1 °F 26.6 °F 49% 29.93 in 10.0 mi SSE 3.5 mph - N/A   Clear
2:55 AM 41.0 °F 38.0 °F 28.4 °F 61% 29.93 in 10.0 mi ENE 4.6 mph - N/A   Clear
3:15 AM 37.4 °F 33.8 °F 28.4 °F 70% 29.93 in 10.0 mi NNE 4.6 mph - N/A   Clear
3:35 AM 41.0 °F 37.1 °F 28.4 °F 61% 29.94 in 10.0 mi NE 5.8 mph - N/A   Clear
3:55 AM 39.2 °F 37.0 °F 30.2 °F 70% 29.94 in 10.0 mi ENE 3.5 mph - N/A   Clear
4:15 AM 39.2 °F 35.9 °F 30.2 °F 70% 29.94 in 10.0 mi ENE 4.6 mph - N/A   Clear
4:35 AM 39.2 °F 35.0 °F 28.4 °F 65% 29.94 in 10.0 mi East 5.8 mph - N/A   Clear
4:55 AM 39.2 °F 35.9 °F 30.2 °F 70% 29.94 in 10.0 mi ENE 4.6 mph - N/A   Clear
5:15 AM 37.4 °F 32.8 °F 32.0 °F 81% 29.94 in 10.0 mi NE 5.8 mph - N/A   Clear
5:35 AM 39.2 °F 35.9 °F 30.2 °F 70% 29.95 in 10.0 mi NNE 4.6 mph - N/A   Clear
5:55 AM 39.2 °F - 28.4 °F 65% 29.95 in 10.0 mi Calm Calm - N/A   Clear
6:15 AM 42.8 °F - 28.4 °F 57% 29.95 in 10.0 mi Calm Calm - N/A   Clear
6:35 AM 41.0 °F - 30.2 °F 65% 29.95 in 10.0 mi Calm Calm - N/A   Clear
6:55 AM 39.2 °F - 32.0 °F 75% 29.96 in 10.0 mi Calm Calm - N/A   Clear
7:15 AM 44.6 °F - 32.0 °F 61% 29.96 in 10.0 mi Calm Calm - N/A   Clear
7:35 AM 46.4 °F 45.2 °F 30.2 °F 53% 29.96 in 10.0 mi ENE 3.5 mph - N/A   Clear
7:55 AM 46.4 °F 45.2 °F 32.0 °F 57% 29.97 in 10.0 mi SE 3.5 mph - N/A   Clear
8:15 AM 48.2 °F - 32.0 °F 54% 29.98 in 10.0 mi South 4.6 mph - N/A   Partly Cloudy
8:35 AM 48.2 °F - 32.0 °F 54% 29.98 in 10.0 mi Calm Calm - N/A   Partly Cloudy
8:55 AM 48.2 °F - 30.2 °F 50% 29.99 in 10.0 mi WSW 3.5 mph - N/A   Mostly Cloudy
9:15 AM 48.2 °F - 30.2 °F 50% 29.99 in 10.0 mi Calm Calm - N/A   Mostly Cloudy
9:35 AM 48.2 °F - 30.2 °F 50% 29.99 in 10.0 mi Calm Calm - N/A   Mostly Cloudy
9:55 AM 50.0 °F - 30.2 °F 47% 29.99 in 10.0 mi Calm Calm - N/A   Mostly Cloudy
10:15 AM 50.0 °F - 30.2 °F 47% 29.98 in 10.0 mi Calm Calm - N/A   Mostly Cloudy
10:35 AM 50.0 °F - 32.0 °F 50% 29.97 in 10.0 mi SE 3.5 mph - N/A   Scattered Clouds
10:55 AM 53.6 °F - 33.8 °F 47% 29.96 in 10.0 mi South 11.5 mph 17.3 mph N/A   Partly Cloudy
11:15 AM 51.8 °F - 33.8 °F 50% 29.96 in 10.0 mi SSE 13.8 mph 27.6 mph N/A   Mostly Cloudy
11:35 AM 53.6 °F - 35.6 °F 51% 29.95 in 10.0 mi South 11.5 mph - N/A   Overcast
11:55 AM 51.8 °F - 33.8 °F 50% 29.94 in 10.0 mi South 13.8 mph - N/A   Overcast
12:15 PM 53.6 °F - 33.8 °F 47% 29.93 in 10.0 mi South 15.0 mph 18.4 mph N/A   Mostly Cloudy
12:55 PM 51.8 °F - 35.6 °F 54% 29.94 in 10.0 mi SW 11.5 mph - N/A   Overcast
1:15 PM 51.8 °F - 33.8 °F 50% 29.93 in 10.0 mi SW 9.2 mph - N/A   Overcast
1:35 PM 51.8 °F - 37.4 °F 58% 29.94 in 10.0 mi South 8.1 mph - N/A   Overcast
1:55 PM 50.0 °F - 37.4 °F 62% 29.93 in 10.0 mi South 3.5 mph - N/A   Overcast
2:15 PM 50.0 °F - 37.4 °F 62% 29.93 in 10.0 mi SSW 9.2 mph - N/A   Overcast
2:35 PM 51.8 °F - 35.6 °F 54% 29.93 in 10.0 mi South 10.4 mph - N/A   Overcast
2:55 PM 51.8 °F - 35.6 °F 54% 29.93 in 10.0 mi SSE 8.1 mph - N/A   Overcast
3:15 PM 51.8 °F - 35.6 °F 54% 29.94 in 10.0 mi SSE 5.8 mph - N/A   Overcast
3:35 PM 53.6 °F - 33.8 °F 47% 29.93 in 10.0 mi WSW 5.8 mph - N/A   Mostly Cloudy
3:55 PM 53.6 °F - 32.0 °F 44% 29.93 in 10.0 mi SW 10.4 mph - N/A   Clear
4:15 PM 53.6 °F - 30.2 °F 41% 29.93 in 10.0 mi SW 11.5 mph - N/A   Scattered Clouds
4:35 PM 51.8 °F - 28.4 °F 41% 29.93 in 10.0 mi SSW 5.8 mph - N/A   Scattered Clouds
4:55 PM 50.0 °F - 30.2 °F 47% 29.93 in 10.0 mi SSW 4.6 mph - N/A   Mostly Cloudy
5:15 PM 50.0 °F - 32.0 °F 50% 29.93 in 10.0 mi South 8.1 mph - N/A   Scattered Clouds
5:55 PM 48.2 °F - 35.6 °F 62% 29.94 in 10.0 mi SSE 9.2 mph - N/A   Clear
6:15 PM 48.2 °F - 35.6 °F 62% 29.94 in 10.0 mi SSE 6.9 mph - N/A   Clear
6:35 PM 46.4 °F 45.2 °F 35.6 °F 66% 29.96 in 10.0 mi North 3.5 mph - N/A   Clear
7:15 PM 44.6 °F - 39.2 °F 81% 29.96 in 10.0 mi Calm Calm - N/A   Scattered Clouds
7:35 PM 44.6 °F 43.1 °F 37.4 °F 76% 29.96 in 10.0 mi ENE 3.5 mph - N/A   Clear
7:55 PM 42.8 °F 40.1 °F 37.4 °F 81% 29.97 in 10.0 mi ENE 4.6 mph - N/A   Clear
8:35 PM 42.8 °F 39.3 °F 37.4 °F 81% 29.98 in 10.0 mi NE 5.8 mph - N/A   Clear
8:55 PM 41.0 °F 38.0 °F 37.4 °F 87% 29.98 in 10.0 mi NE 4.6 mph - N/A   Clear
9:15 PM 41.0 °F 38.0 °F 37.4 °F 87% 29.98 in 10.0 mi NNE 4.6 mph - N/A   Clear
9:35 PM 41.0 °F 37.1 °F 37.4 °F 87% 29.98 in 10.0 mi NE 5.8 mph - N/A   Clear
10:15 PM 41.0 °F 38.0 °F 37.4 °F 87% 29.98 in 10.0 mi NE 4.6 mph - N/A   Mostly Cloudy
10:35 PM 44.6 °F 42.2 °F 37.4 °F 76% 29.98 in 10.0 mi NNE 4.6 mph - N/A   Mostly Cloudy
10:55 PM 41.0 °F 39.0 °F 37.4 °F 87% 29.99 in 10.0 mi NNE 3.5 mph - N/A   Mostly Cloudy